{"data":{"norad_id":62769,"epoch":"2026-09-21T20:04:02.664480Z","epoch_age_seconds":55817,"freshness":"FRESH","line1":"1 62769U 25015M   26264.83614195  .00004522  00000+0  14489-3 0  9991","line2":"2 62769  53.1589 127.7175 0002524 141.5787 218.5396 15.34401406 94565","mean_motion":15.34401406,"eccentricity":0.0002524,"inclination_deg":53.1589,"raan_deg":127.7175,"arg_perigee_deg":141.5787,"mean_anomaly_deg":218.5396,"bstar":0.00014489,"rev_number":9456,"period_min":93.847672086922,"perigee_km":460.97243426013,"apogee_km":464.42568830386,"semimajor_km":6840.836061282,"source":"CELESTRAK","updated_at":"2026-09-22T09:00:49.662676Z"}}